Regional Weather Roundup
Issued by NWS

Home | Current Version | Previous Version | Text Only | Print | Product List | Glossary On
Versions: 1 2 3 4 5 6 7 8 9 10 11 12 13 14 15 16 17 18 19 20 21 22 23 24 25 26 27
000
ASUS45 KREV 230610
RWRNV
NEVADA REGIONAL WEATHER ROUNDUP
NATIONAL WEATHER SERVICE RENO NV
1000 PM PST SUN JAN 22 2017

NOTE: "FAIR" INDICATES FEW OR NO CLOUDS BELOW 12,000 FEET WITH NO
SIGNIFICANT WEATHER AND/OR OBSTRUCTIONS TO VISIBILITY.

NVZ001-003-004-230700-
WESTERN NEVADA

CITY           SKY/WX    TMP DP  RH WIND       PRES   REMARKS
RENO           LGT SNOW  31  30  96 CALM      29.58R
6HR MIN TEMP:  30; 6HR MAX TEMP:  35; 6HR PCP:  0.37;

CARSON CITY    LGT SNOW  32  30  93 MISG      29.58S
MINDEN         SNOW      32  32 100 E8        29.58F VSB 1/2
PYRAMID LAKE     N/A     32 N/A N/A SW2         N/A
FALLON         LGT SNOW  33  31  92 W14       29.59R FOG
6HR MIN TEMP:  33; 6HR MAX TEMP:  37; 6HR PCP:  0.12;

LOVELOCK       LGT SNOW  32  32 100 S5        29.58R VSB 3/4
6HR MIN TEMP:  32; 6HR MAX TEMP:  38; 6HR PCP:  0.20;

HAWTHORNE        N/A     36  36 100 W5        29.58R
$$

NVZ002-CAZ072-073-230700-
NORTHERN AND CENTRAL SIERRA

CITY           SKY/WX    TMP DP  RH WIND       PRES   REMARKS
S. LAKE TAHOE  LGT SNOW  27  25  92 S3        29.54F VSB 3/4
6HR MIN TEMP:  27; 6HR MAX TEMP:  32; 6HR PCP:  0.57;

TRUCKEE        LGT SNOW  27  27 100 S3        29.56R
SQUAW VLY 8000   N/A     19  19 100 SW10        N/A
SUSANVILLE     LGT SNOW  32  30  93 MISG      29.58R
MAMMOTH LAKES  LGT SNOW  29  28  95 S5        29.53F
6HR MIN TEMP:  27; 6HR MAX TEMP:  29;

BRIDGEPORT     HVY SNOW  27  24  89 SW5       29.50F VSB 1/4
$$

NVZ030-031-036-230700-
NORTHERN NEVADA

CITY           SKY/WX    TMP DP  RH WIND       PRES   REMARKS
ELKO           CLOUDY    34  30  85 W3        29.57F
6HR MIN TEMP:  33; 6HR MAX TEMP:  35; 6HR PCP:  0.03;

WINNEMUCCA     LGT SNOW  33  32  96 CALM      29.54S FOG
6HR MIN TEMP:  33; 6HR MAX TEMP:  37; 6HR PCP: TRACE;

WENDOVER       CLOUDY    28  28 100 CALM      29.67F
$$

NVZ035-037-230700-
CENTRAL NEVADA

CITY           SKY/WX    TMP DP  RH WIND       PRES   REMARKS
ELY            LGT SNOW  31  27  85 S22G30    29.62S FOG
6HR MIN TEMP:  30; 6HR MAX TEMP:  31; 6HR PCP:  0.01;

EUREKA           N/A     31  26  82 CALM      29.56F
6HR MIN TEMP:  30; 6HR MAX TEMP:  34; 6HR PCP:  0.06;

$$

NVZ013-014-230700-
SOUTH CENTRAL NEVADA

CITY           SKY/WX    TMP DP  RH WIND       PRES   REMARKS
TONOPAH        CLOUDY    34  32  92 S21G31    29.57F
6HR MIN TEMP:  32; 6HR MAX TEMP:  34; 6HR PCP: TRACE;

$$

NVZ017-020-022-230700-
SOUTHERN NEVADA

CITY           SKY/WX    TMP DP  RH WIND       PRES   REMARKS
LAS VEGAS      CLOUDY    49  40  71 E3        29.79F
6HR MIN TEMP:  46; 6HR MAX TEMP:  49; 6HR PCP:  0.08;

N. LAS VEGAS   LGT RAIN  45  44  97 SE12      29.79F
6HR MIN TEMP:  44; 6HR MAX TEMP:  45; 6HR PCP:  0.19;

NELLIS AFB     LGT RAIN  49  42  76 S22G30    29.81F
6HR MIN TEMP:  46; 6HR MAX TEMP:  49; 6HR PCP:  0.06;

HENDERSON      CLOUDY    48  40  73 S20G32    29.79F
6HR MIN TEMP:  44; 6HR MAX TEMP:  48;

MERCURY        LGT RAIN  45  41  86 SW16G29   29.75R
6HR MIN TEMP:  41; 6HR MAX TEMP:  48; 6HR PCP:  0.02;

$$




USA.gov is the U.S. government's official web portal to all federal, state and local government web resources and services.